Weather Roundup
Issued by NWS Chicago, IL

Home | Current Version | Previous Version | Graphics & Text | Print | Product List | Glossary Off
Versions: 1 2 3 4 5 6 7 8 9 10 11 12 13 14 15 16 17 18 19 20 21 22 23 24 25 26 27 28 29 30 31 32 33 34 35 36 37 38 39 40 41 42 43 44 45 46 47 48 49 50

000
NZUS59 KLOT 280809
HRRLOT

CHICAGO AREA WEATHER ROUNDUP
NATIONAL WEATHER SERVICE CHICAGO/ROMEOVILLE IL
300 AM CDT WED JUN 28 2017

NOTE: "FAIR" INDICATES FEW OR NO CLOUDS BELOW 12,000 FEET WITH NO
SIGNIFICANT WEATHER AND/OR OBSTRUCTIONS TO VISIBILITY.

* THESE STATIONS ARE NOT UNDER NWS QUALITY CONTROL. THEY ALSO MAY NOT
  REPORT WEATHER SUCH AS PRECIPITATION OR FOG.

ILZ005-006-012>014-019>023-280900-
NORTHEAST ILLINOIS

CITY           SKY/WX    TMP DP  RH WIND       PRES   REMARKS
OHARE          CLEAR     61  47  59 S9        30.00F
MIDWAY         CLEAR     64  48  56 S10       30.00F
AURORA         CLEAR     56  49  77 SE7       30.01F
LANSING*       CLEAR     56  47  71 S7        30.02F
JOLIET*        CLEAR     60  50  69 S5        30.02F
WAUKEGAN       CLEAR     57  48  72 S7        29.99F
DUPAGE AIRPORT CLEAR     55  49  80 S6        30.01F
WHEELING       CLEAR     57  49  74 S7        30.02F
MORRIS*        CLEAR     58  49  74 S8        30.00F
LEWIS AIRPORT* CLEAR     58  47  66 S8        30.02F
$$

WIZ051-052-058>065-066-070>072-280900-
SOUTHEAST WISCONSIN

CITY           SKY/WX    TMP DP  RH WIND       PRES   REMARKS
MILWAUKEE      PTCLDY    57  49  74 S5        29.97F
KENOSHA*       CLEAR     57  47  69 S6        29.99F
RACINE*        CLEAR     58  45  62 S5        30.00F
WAUKESHA       CLEAR     54  45  71 S5        29.98F
WEST BEND      CLEAR     52  48  87 CALM      29.96F
$$

INZ001>003-010>013-019-020-280900-
NORTHWEST INDIANA

CITY           SKY/WX    TMP DP  RH WIND       PRES   REMARKS
GARY*          CLEAR     61  46  59 SE7       30.02F
MICHIGAN CITY* NOT AVBL
RENSSELAER*    NOT AVBL
VALPARAISO     CLEAR     57  49  74 SE5       30.05F
$$

LMZ740>746-280900-
SOUTHERN LAKE MICHIGAN

STATION/POSITION TIME  SKY/WX   TEMP WIND        PRES    VSBY
                                AIR  DIR/SP/G
                 (UTC)          (F)  (DEG/KT/KT) (MB)    (MI)
HARRISON CRIB    0740            66  190/ 11/ 12   N/A
BURNHAM HARBOR   0800            64                N/A
CALUMET HARBOR   0742            63  170/  9/ 12 1016.0F
BURNS HARBOR     0740            63  180/  9/ 15 1017.9F
MICHIGAN CITY    0740            62  160/ 12/ 14   N/A
$$

ABBREVIATIONS USED IN REMARKS
   TC - TEMPERATURE IN CELSIUS
  WCI - WIND CHILL INDEX
   HX - HEAT INDEX
  VSB - VISIBILITY
$$




USA.gov is the U.S. government's official web portal to all federal, state and local government web resources and services.